| time (UTC) | temp F | wind direction | speed MPH | gust MPH | rain 1hr in | rain 24hr in | rain mn in | humidity % | barometer mb |
| 20260506033005 | 50 | 0 | 0.0 | 0.0 | 0.00 | 0.72 | 0.05 | 96 | 1005.6 |
| 20260506032505 | 50 | 0 | 0.0 | 0.0 | 0.00 | 0.72 | 0.05 | 96 | 1005.6 |
| 20260506031505 | 50 | 0 | 0.0 | 0.0 | 0.00 | 0.72 | 0.05 | 96 | 1005.7 |
| 20260506031005 | 50 | 0 | 0.0 | 0.0 | 0.00 | 0.72 | 0.05 | 96 | 1005.7 |
| 20260506030505 | 50 | 0 | 0.0 | 0.0 | 0.00 | 0.72 | 0.05 | 96 | 1005.8 |
| 20260506030005 | 50 | 0 | 0.0 | 0.0 | 0.00 | 0.72 | 0.05 | 96 | 1005.9 |
| 20260506025505 | 50 | 0 | 0.0 | 0.0 | 0.00 | 0.72 | 0.05 | 96 | 1005.8 |
| 20260506025005 | 50 | 0 | 0.0 | 0.0 | 0.00 | 0.72 | 0.05 | 95 | 1005.9 |
| 20260506024504 | 50 | 240 | 0.0 | 1.0 | 0.00 | 0.72 | 0.05 | 95 | 1005.9 |
| 20260506024005 | 50 | 212 | 0.0 | 3.0 | 0.00 | 0.72 | 0.05 | 95 | 1005.9 |
| 20260506023505 | 50 | 210 | 1.0 | 5.0 | 0.00 | 0.72 | 0.05 | 95 | 1005.9 |
| 20260506023005 | 51 | 210 | 2.0 | 5.0 | 0.00 | 0.72 | 0.05 | 95 | 1005.9 |
| 20260506022505 | 51 | 212 | 2.0 | 5.0 | 0.00 | 0.72 | 0.05 | 95 | 1005.9 |
| 20260506021505 | 51 | 199 | 1.0 | 5.0 | 0.00 | 0.72 | 0.05 | 95 | 1005.8 |
| 20260506021005 | 52 | 213 | 2.0 | 8.0 | 0.00 | 0.72 | 0.05 | 95 | 1005.8 |
| 20260506020505 | 52 | 211 | 2.0 | 8.0 | 0.00 | 0.72 | 0.05 | 95 | 1005.8 |
| 20260506020005 | 52 | 211 | 3.0 | 8.0 | 0.00 | 0.72 | 0.05 | 95 | 1005.8 |
| 20260506015004 | 52 | 200 | 2.0 | 9.0 | 0.00 | 0.72 | 0.05 | 96 | 1005.8 |
| 20260506014504 | 52 | 207 | 3.0 | 9.0 | 0.00 | 0.72 | 0.05 | 96 | 1005.8 |
| 20260506014005 | 52 | 210 | 3.0 | 9.0 | 0.00 | 0.72 | 0.05 | 96 | 1005.8 |
| 20260506013505 | 52 | 198 | 3.0 | 10.0 | 0.00 | 0.72 | 0.05 | 96 | 1005.8 |
| 20260506012505 | 52 | 192 | 3.0 | 9.0 | 0.00 | 0.72 | 0.05 | 96 | 1005.8 |
| 20260506012005 | 52 | 200 | 3.0 | 8.0 | 0.01 | 0.72 | 0.05 | 96 | 1005.8 |
| 20260506011504 | 52 | 196 | 3.0 | 8.0 | 0.02 | 0.72 | 0.05 | 96 | 1005.9 |
| 20260506011005 | 53 | 191 | 3.0 | 8.0 | 0.03 | 0.72 | 0.05 | 96 | 1005.7 |
| 20260506010505 | 53 | 182 | 3.0 | 14.0 | 0.03 | 0.72 | 0.05 | 96 | 1005.9 |
| 20260506010005 | 53 | 175 | 3.0 | 14.0 | 0.03 | 0.72 | 0.05 | 96 | 1005.9 |
| 20260506005505 | 53 | 172 | 3.0 | 8.0 | 0.03 | 0.72 | 0.05 | 96 | 1005.9 |
| 20260506005005 | 53 | 170 | 3.0 | 9.0 | 0.03 | 0.72 | 0.05 | 96 | 1006.0 |
| 20260506004505 | 53 | 170 | 3.0 | 9.0 | 0.03 | 0.72 | 0.05 | 96 | 1006.0 |
| 20260506004005 | 53 | 172 | 3.0 | 8.0 | 0.03 | 0.72 | 0.05 | 96 | 1006.0 |
| 20260506003505 | 53 | 177 | 2.0 | 7.0 | 0.03 | 0.72 | 0.05 | 96 | 1006.0 |
| 20260506003005 | 53 | 181 | 2.0 | 6.0 | 0.03 | 0.72 | 0.05 | 96 | 1006.1 |
| 20260506002504 | 53 | 176 | 2.0 | 6.0 | 0.02 | 0.71 | 0.04 | 96 | 1006.1 |
| 20260506002005 | 53 | 171 | 2.0 | 6.0 | 0.03 | 0.71 | 0.04 | 96 | 1006.1 |
| 20260506001005 | 53 | 170 | 2.0 | 5.0 | 0.01 | 0.69 | 0.02 | 96 | 1006.2 |
| 20260506000505 | 53 | 174 | 2.0 | 5.0 | 0.01 | 0.69 | 0.02 | 96 | 1006.3 |
| 20260506000005 | 53 | 184 | 2.0 | 5.0 | 0.02 | 0.69 | 0.02 | 96 | 1006.3 |
| 20260505235505 | 53 | 188 | 2.0 | 5.0 | 0.02 | 0.69 | 0.02 | 96 | 1006.4 |
| 20260505235005 | 53 | 176 | 1.0 | 5.0 | 0.02 | 0.69 | 0.02 | 96 | 1006.4 |
| 20260505234505 | 53 | 162 | 0.0 | 4.0 | 0.02 | 0.69 | 0.02 | 97 | 1006.5 |
| 20260505234005 | 53 | 166 | 1.0 | 3.0 | 0.02 | 0.69 | 0.02 | 97 | 1006.5 |
| 20260505233505 | 53 | 168 | 1.0 | 3.0 | 0.02 | 0.69 | 0.02 | 97 | 1006.5 |
| 20260505233005 | 53 | 164 | 1.0 | 2.0 | 0.02 | 0.69 | 0.02 | 97 | 1006.5 |
| 20260505232505 | 53 | 167 | 0.0 | 2.0 | 0.02 | 0.69 | 0.02 | 96 | 1006.5 |
| 20260505232005 | 53 | 143 | 0.0 | 2.0 | 0.01 | 0.68 | 0.01 | 96 | 1006.5 |
| 20260505231505 | 53 | 141 | 0.0 | 2.0 | 0.01 | 0.68 | 0.01 | 96 | 1006.6 |
| 20260505231005 | 53 | 177 | 0.0 | 2.0 | 0.01 | 0.68 | 0.01 | 97 | 1006.6 |
| 20260505230504 | 53 | 201 | 0.0 | 2.0 | 0.01 | 0.68 | 0.01 | 97 | 1006.6 |
| 20260505230004 | 53 | 192 | 0.0 | 2.0 | 0.00 | 0.67 | 0.00 | 97 | 1006.6 |
| 20260505225004 | 53 | 174 | 0.0 | 3.0 | 0.00 | 0.67 | 0.00 | 97 | 1006.7 |
| 20260505224005 | 53 | 152 | 0.0 | 4.0 | 0.00 | 0.67 | 0.00 | 96 | 1006.8 |
| 20260505223504 | 53 | 156 | 0.0 | 4.0 | 0.00 | 0.67 | 0.00 | 96 | 1006.8 |
| 20260505223004 | 53 | 157 | 0.0 | 4.0 | 0.00 | 0.67 | 0.00 | 96 | 1006.8 |
| 20260505222005 | 53 | 0 | 0.0 | 0.0 | 0.00 | 0.67 | 0.00 | 96 | 1006.8 |
| 20260505221504 | 53 | 0 | 0.0 | 0.0 | 0.00 | 0.67 | 0.00 | 96 | 1006.9 |
| 20260505220505 | 53 | 0 | 0.0 | 0.0 | 0.00 | 0.67 | 0.00 | 96 | 1007.0 |
| 20260505220007 | 53 | 0 | 0.0 | 0.0 | 0.00 | 0.67 | 0.00 | 96 | 1007.0 |
| 20260505215505 | 53 | 0 | 0.0 | 0.0 | 0.00 | 0.67 | 0.67 | 96 | 1007.1 |
| 20260505215004 | 53 | 0 | 0.0 | 0.0 | 0.00 | 0.67 | 0.67 | 96 | 1007.1 |
| 20260505214505 | 53 | 0 | 0.0 | 0.0 | 0.00 | 0.67 | 0.67 | 96 | 1007.1 |
| 20260505214005 | 53 | 0 | 0.0 | 0.0 | 0.00 | 0.67 | 0.67 | 96 | 1007.2 |
| 20260505213505 | 53 | 0 | 0.0 | 0.0 | 0.01 | 0.67 | 0.67 | 96 | 1007.2 |
| 20260505213005 | 53 | 0 | 0.0 | 0.0 | 0.02 | 0.67 | 0.67 | 96 | 1007.2 |
| 20260505212505 | 53 | 42 | 0.0 | 1.0 | 0.02 | 0.67 | 0.67 | 96 | 1007.2 |
| 20260505211505 | 53 | 43 | 0.0 | 1.0 | 0.03 | 0.67 | 0.67 | 96 | 1007.2 |
| 20260505211004 | 53 | 0 | 0.0 | 0.0 | 0.03 | 0.67 | 0.67 | 96 | 1007.3 |
| 20260505210505 | 53 | 0 | 0.0 | 0.0 | 0.04 | 0.67 | 0.67 | 96 | 1007.3 |
| 20260505210006 | 53 | 0 | 0.0 | 0.0 | 0.04 | 0.67 | 0.67 | 96 | 1007.4 |
| 20260505205504 | 53 | 0 | 0.0 | 0.0 | 0.05 | 0.67 | 0.67 | 96 | 1007.4 |
| 20260505205005 | 53 | 0 | 0.0 | 0.0 | 0.05 | 0.67 | 0.67 | 96 | 1007.4 |
| 20260505204504 | 53 | 0 | 0.0 | 0.0 | 0.06 | 0.67 | 0.67 | 96 | 1007.4 |
| 20260505204005 | 53 | 0 | 0.0 | 0.0 | 0.06 | 0.67 | 0.67 | 96 | 1007.6 |
| 20260505203505 | 53 | 0 | 0.0 | 0.0 | 0.06 | 0.66 | 0.66 | 96 | 1007.6 |
| 20260505203004 | 53 | 0 | 0.0 | 0.0 | 0.06 | 0.65 | 0.65 | 96 | 1007.6 |
| 20260505202505 | 53 | 0 | 0.0 | 0.0 | 0.06 | 0.65 | 0.65 | 96 | 1007.5 |
| 20260505201505 | 53 | 42 | 0.0 | 1.0 | 0.06 | 0.64 | 0.64 | 96 | 1007.4 |
| 20260505201005 | 53 | 43 | 0.0 | 1.0 | 0.06 | 0.64 | 0.64 | 95 | 1007.4 |
| 20260505195505 | 53 | 55 | 0.0 | 1.0 | 0.07 | 0.62 | 0.62 | 95 | 1007.4 |
| 20260505195004 | 53 | 0 | 0.0 | 0.0 | 0.08 | 0.62 | 0.62 | 95 | 1007.4 |
| 20260505194505 | 53 | 0 | 0.0 | 0.0 | 0.09 | 0.61 | 0.61 | 95 | 1007.5 |
| 20260505193505 | 53 | 0 | 0.0 | 0.0 | 0.11 | 0.61 | 0.61 | 95 | 1007.3 |
| 20260505193005 | 53 | 0 | 0.0 | 0.0 | 0.11 | 0.60 | 0.60 | 95 | 1007.2 |
| 20260505192504 | 53 | 0 | 0.0 | 0.0 | 0.11 | 0.59 | 0.59 | 95 | 1007.3 |
| 20260505192005 | 53 | 0 | 0.0 | 0.0 | 0.13 | 0.58 | 0.58 | 95 | 1007.3 |
| 20260505191504 | 53 | 0 | 0.0 | 0.0 | 0.17 | 0.58 | 0.58 | 95 | 1007.3 |
| 20260505191005 | 53 | 359 | 0.0 | 1.0 | 0.17 | 0.57 | 0.57 | 95 | 1007.4 |
| 20260505190505 | 53 | 359 | 0.0 | 1.0 | 0.17 | 0.57 | 0.57 | 95 | 1007.3 |
| 20260505185004 | 53 | 0 | 0.0 | 0.0 | 0.17 | 0.54 | 0.54 | 94 | 1007.2 |
| 20260505184505 | 53 | 0 | 0.0 | 0.0 | 0.15 | 0.53 | 0.53 | 94 | 1007.3 |
| 20260505184005 | 54 | 0 | 0.0 | 0.0 | 0.13 | 0.50 | 0.50 | 94 | 1007.3 |
| 20260505183504 | 54 | 0 | 0.0 | 0.0 | 0.13 | 0.50 | 0.50 | 94 | 1007.2 |
| 20260505183005 | 54 | 34 | 0.0 | 1.0 | 0.12 | 0.49 | 0.49 | 94 | 1007.2 |
| 20260505182505 | 54 | 82 | 0.0 | 2.0 | 0.11 | 0.48 | 0.48 | 94 | 1007.2 |
| 20260505182004 | 54 | 90 | 0.0 | 2.0 | 0.08 | 0.45 | 0.45 | 94 | 1007.3 |
| 20260505181504 | 54 | 0 | 0.0 | 0.0 | 0.04 | 0.41 | 0.41 | 94 | 1007.3 |
| 20260505181005 | 54 | 0 | 0.0 | 0.0 | 0.03 | 0.40 | 0.40 | 94 | 1007.3 |
| 20260505180504 | 54 | 0 | 0.0 | 0.0 | 0.02 | 0.39 | 0.39 | 94 | 1007.4 |
| 20260505180004 | 54 | 0 | 0.0 | 0.0 | 0.02 | 0.39 | 0.39 | 94 | 1007.3 |
| 20260505175505 | 54 | 0 | 0.0 | 0.0 | 0.02 | 0.39 | 0.39 | 94 | 1007.3 |
| 20260505175005 | 54 | 0 | 0.0 | 0.0 | 0.01 | 0.38 | 0.38 | 94 | 1007.4 |
| 20260505174504 | 54 | 0 | 0.0 | 0.0 | 0.01 | 0.38 | 0.38 | 94 | 1007.4 |
| 20260505174004 | 54 | 0 | 0.0 | 0.0 | 0.00 | 0.37 | 0.37 | 94 | 1007.4 |
| 20260505173505 | 54 | 0 | 0.0 | 0.0 | 0.01 | 0.37 | 0.37 | 93 | 1007.4 |
| 20260505172505 | 55 | 0 | 0.0 | 0.0 | 0.01 | 0.37 | 0.37 | 93 | 1007.4 |
| 20260505172005 | 54 | 0 | 0.0 | 0.0 | 0.01 | 0.37 | 0.37 | 93 | 1007.5 |
| 20260505171505 | 55 | 0 | 0.0 | 0.0 | 0.01 | 0.37 | 0.37 | 93 | 1007.5 |
| 20260505171005 | 55 | 0 | 0.0 | 0.0 | 0.01 | 0.37 | 0.37 | 93 | 1007.5 |
| 20260505170505 | 55 | 0 | 0.0 | 0.0 | 0.02 | 0.37 | 0.37 | 93 | 1007.5 |
| 20260505170005 | 55 | 0 | 0.0 | 0.0 | 0.02 | 0.37 | 0.37 | 93 | 1007.5 |
| 20260505165505 | 55 | 0 | 0.0 | 0.0 | 0.02 | 0.37 | 0.37 | 93 | 1007.5 |
| 20260505165005 | 55 | 0 | 0.0 | 0.0 | 0.02 | 0.37 | 0.37 | 93 | 1007.6 |
| 20260505164505 | 54 | 0 | 0.0 | 0.0 | 0.02 | 0.37 | 0.37 | 93 | 1007.6 |
| 20260505164005 | 54 | 0 | 0.0 | 0.0 | 0.02 | 0.37 | 0.37 | 93 | 1007.6 |
| 20260505163505 | 54 | 0 | 0.0 | 0.0 | 0.02 | 0.36 | 0.36 | 93 | 1007.5 |
| 20260505163006 | 55 | 0 | 0.0 | 0.0 | 0.02 | 0.36 | 0.36 | 93 | 1007.6 |
| 20260505162505 | 55 | 0 | 0.0 | 0.0 | 0.02 | 0.36 | 0.36 | 93 | 1007.7 |
| 20260505161504 | 54 | 0 | 0.0 | 0.0 | 0.02 | 0.36 | 0.36 | 93 | 1007.6 |
| 20260505161004 | 54 | 0 | 0.0 | 0.0 | 0.03 | 0.36 | 0.36 | 92 | 1007.7 |
| 20260505160506 | 54 | 0 | 0.0 | 0.0 | 0.02 | 0.35 | 0.35 | 92 | 1007.7 |
| 20260505153004 | 54 | 229 | 0.0 | 2.0 | 0.02 | 0.36 | 0.34 | 93 | 1008.0 |
| 20260505152505 | 54 | 230 | 0.0 | 2.0 | 0.02 | 0.36 | 0.34 | 93 | 1008.0 |
| 20260505152005 | 54 | 0 | 0.0 | 0.0 | 0.02 | 0.37 | 0.34 | 93 | 1008.0 |
| 20260505151504 | 54 | 0 | 0.0 | 0.0 | 0.03 | 0.38 | 0.34 | 93 | 1008.0 |
| 20260505151005 | 54 | 230 | 0.0 | 1.0 | 0.02 | 0.39 | 0.33 | 93 | 1008.0 |
| 20260505150504 | 54 | 222 | 0.0 | 2.0 | 0.02 | 0.41 | 0.33 | 93 | 1008.1 |
| 20260505140505 | 55 | 210 | 0.0 | 2.0 | 0.02 | 0.40 | 0.31 | 93 | 1008.3 |
| 20260505125004 | 56 | 0 | 0.0 | 0.0 | 0.24 | 0.36 | 0.25 | 92 | 1008.6 |
| 20260505124505 | 56 | 0 | 0.0 | 0.0 | 0.24 | 0.35 | 0.24 | 92 | 1008.7 |
| 20260505123505 | 56 | 0 | 0.0 | 0.0 | 0.19 | 0.30 | 0.19 | 91 | 1008.8 |
| 20260505123005 | 56 | 0 | 0.0 | 0.0 | 0.13 | 0.24 | 0.13 | 90 | 1008.8 |
| 20260505122505 | 56 | 0 | 0.0 | 0.0 | 0.12 | 0.23 | 0.12 | 91 | 1008.7 |
| 20260505121505 | 57 | 192 | 1.0 | 3.0 | 0.09 | 0.20 | 0.09 | 90 | 1008.7 |
| 20260505120005 | 58 | 170 | 0.0 | 1.0 | 0.04 | 0.15 | 0.04 | 88 | 1008.8 |
| 20260505114505 | 58 | 183 | 0.0 | 2.0 | 0.01 | 0.12 | 0.01 | 85 | 1008.7 |
| 20260505114005 | 58 | 210 | 0.0 | 2.0 | 0.00 | 0.11 | 0.00 | 84 | 1008.8 |
| 20260505113504 | 58 | 214 | 0.0 | 2.0 | 0.00 | 0.11 | 0.00 | 83 | 1008.8 |
| 20260505113005 | 59 | 213 | 1.0 | 2.0 | 0.00 | 0.11 | 0.00 | 82 | 1008.8 |
| 20260505112505 | 59 | 197 | 1.0 | 3.0 | 0.00 | 0.11 | 0.00 | 82 | 1008.8 |
| 20260505112004 | 59 | 203 | 1.0 | 3.0 | 0.00 | 0.11 | 0.00 | 81 | 1008.7 |
| 20260505111505 | 59 | 214 | 0.0 | 3.0 | 0.00 | 0.11 | 0.00 | 81 | 1008.8 |
| 20260505111004 | 59 | 0 | 0.0 | 0.0 | 0.00 | 0.11 | 0.00 | 82 | 1008.7 |
| 20260505110504 | 59 | 120 | 0.0 | 1.0 | 0.00 | 0.12 | 0.00 | 80 | 1008.9 |
| 20260505102005 | 59 | 160 | 1.0 | 3.0 | 0.00 | 0.13 | 0.00 | 79 | 1009.2 |
| 20260505101505 | 59 | 111 | 1.0 | 3.0 | 0.00 | 0.14 | 0.00 | 80 | 1009.2 |
| 20260505100504 | 59 | 78 | 1.0 | 3.0 | 0.00 | 0.15 | 0.00 | 82 | 1009.4 |
| 20260505095505 | 59 | 90 | 1.0 | 3.0 | 0.00 | 0.16 | 0.00 | 83 | 1009.3 |
| 20260505095004 | 58 | 96 | 2.0 | 5.0 | 0.00 | 0.16 | 0.00 | 83 | 1009.3 |
| 20260505094505 | 58 | 104 | 1.0 | 5.0 | 0.00 | 0.17 | 0.00 | 83 | 1009.3 |
| 20260505093505 | 58 | 74 | 2.0 | 5.0 | 0.00 | 0.17 | 0.00 | 83 | 1009.3 |
| 20260505093005 | 58 | 76 | 2.0 | 5.0 | 0.00 | 0.17 | 0.00 | 82 | 1009.4 |
| 20260505092505 | 59 | 75 | 1.0 | 3.0 | 0.00 | 0.17 | 0.00 | 82 | 1009.4 |
| 20260505092005 | 59 | 87 | 0.0 | 3.0 | 0.00 | 0.17 | 0.00 | 83 | 1009.3 |
| 20260505091505 | 59 | 82 | 1.0 | 4.0 | 0.00 | 0.17 | 0.00 | 83 | 1009.4 |
| 20260505091005 | 58 | 82 | 1.0 | 4.0 | 0.00 | 0.17 | 0.00 | 82 | 1009.5 |
| 20260505090505 | 58 | 86 | 1.0 | 4.0 | 0.00 | 0.17 | 0.00 | 82 | 1009.5 |
| 20260505090005 | 58 | 76 | 1.0 | 3.0 | 0.00 | 0.17 | 0.00 | 83 | 1009.5 |
| 20260505085504 | 58 | 104 | 1.0 | 6.0 | 0.00 | 0.17 | 0.00 | 83 | 1009.5 |
| 20260505085004 | 58 | 161 | 1.0 | 6.0 | 0.00 | 0.17 | 0.00 | 84 | 1009.5 |
| 20260505084504 | 58 | 131 | 1.0 | 6.0 | 0.00 | 0.17 | 0.00 | 84 | 1009.5 |
| 20260505084005 | 58 | 103 | 1.0 | 5.0 | 0.00 | 0.17 | 0.00 | 86 | 1009.4 |
| 20260505083505 | 58 | 118 | 1.0 | 3.0 | 0.00 | 0.17 | 0.00 | 85 | 1009.5 |
| 20260505083005 | 58 | 94 | 1.0 | 7.0 | 0.00 | 0.17 | 0.00 | 86 | 1009.6 |
| 20260505082505 | 58 | 118 | 1.0 | 7.0 | 0.00 | 0.17 | 0.00 | 87 | 1009.5 |
| 20260505082004 | 57 | 91 | 2.0 | 6.0 | 0.00 | 0.17 | 0.00 | 86 | 1009.7 |
| 20260505081004 | 58 | 90 | 2.0 | 5.0 | 0.00 | 0.17 | 0.00 | 85 | 1009.7 |
| 20260505080505 | 58 | 152 | 2.0 | 9.0 | 0.00 | 0.17 | 0.00 | 86 | 1009.7 |
| 20260505080006 | 58 | 173 | 2.0 | 9.0 | 0.00 | 0.17 | 0.00 | 87 | 1009.7 |
| 20260505075504 | 58 | 171 | 2.0 | 6.0 | 0.00 | 0.17 | 0.00 | 87 | 1009.7 |
| 20260505075005 | 57 | 152 | 1.0 | 5.0 | 0.00 | 0.17 | 0.00 | 88 | 1009.8 |
| 20260505074505 | 57 | 79 | 1.0 | 4.0 | 0.00 | 0.17 | 0.00 | 90 | 1009.8 |
| 20260505074004 | 56 | 81 | 1.0 | 4.0 | 0.00 | 0.17 | 0.00 | 90 | 1009.9 |
| 20260505073505 | 56 | 96 | 1.0 | 4.0 | 0.00 | 0.17 | 0.00 | 91 | 1009.9 |
| 20260505073004 | 56 | 107 | 0.0 | 4.0 | 0.00 | 0.17 | 0.00 | 93 | 1009.9 |
| 20260505072504 | 56 | 82 | 1.0 | 3.0 | 0.00 | 0.17 | 0.00 | 94 | 1010.0 |
| 20260505071505 | 55 | 110 | 0.0 | 4.0 | 0.00 | 0.17 | 0.00 | 95 | 1010.2 |
| 20260505070505 | 55 | 80 | 1.0 | 4.0 | 0.00 | 0.17 | 0.00 | 97 | 1010.2 |
| 20260505070005 | 55 | 85 | 1.0 | 4.0 | 0.00 | 0.17 | 0.00 | 97 | 1010.2 |
| 20260505065504 | 54 | 86 | 1.0 | 4.0 | 0.00 | 0.17 | 0.00 | 97 | 1010.2 |
| 20260505065004 | 54 | 79 | 1.0 | 4.0 | 0.00 | 0.17 | 0.00 | 98 | 1010.2 |
| 20260505064504 | 54 | 80 | 1.0 | 4.0 | 0.00 | 0.17 | 0.00 | 98 | 1010.2 |
| 20260505064004 | 53 | 81 | 1.0 | 4.0 | 0.00 | 0.17 | 0.00 | 97 | 1010.2 |
| 20260505063504 | 53 | 89 | 0.0 | 2.0 | 0.00 | 0.17 | 0.00 | 98 | 1010.2 |
| 20260505063004 | 53 | 0 | 0.0 | 0.0 | 0.00 | 0.17 | 0.00 | 98 | 1010.3 |
| 20260505062505 | 53 | 0 | 0.0 | 0.0 | 0.00 | 0.17 | 0.00 | 97 | 1010.3 |
| 20260505061504 | 52 | 0 | 0.0 | 0.0 | 0.00 | 0.17 | 0.00 | 97 | 1010.2 |
| 20260505060505 | 52 | 0 | 0.0 | 0.0 | 0.00 | 0.17 | 0.00 | 97 | 1010.2 |
| 20260505055505 | 52 | 0 | 0.0 | 0.0 | 0.00 | 0.17 | 0.00 | 97 | 1010.2 |
| 20260505055004 | 52 | 0 | 0.0 | 0.0 | 0.00 | 0.17 | 0.00 | 97 | 1010.2 |
| 20260505053505 | 51 | 0 | 0.0 | 0.0 | 0.00 | 0.17 | 0.00 | 97 | 1010.3 |
| 20260505053005 | 51 | 0 | 0.0 | 0.0 | 0.00 | 0.17 | 0.00 | 97 | 1010.3 |
| 20260505052504 | 51 | 0 | 0.0 | 0.0 | 0.00 | 0.17 | 0.00 | 97 | 1010.3 |
| 20260505052005 | 51 | 0 | 0.0 | 0.0 | 0.00 | 0.17 | 0.00 | 97 | 1010.4 |
| 20260505051504 | 51 | 0 | 0.0 | 0.0 | 0.00 | 0.17 | 0.00 | 97 | 1010.3 |
| 20260505051004 | 51 | 0 | 0.0 | 0.0 | 0.00 | 0.17 | 0.00 | 97 | 1010.3 |
| 20260505050505 | 51 | 0 | 0.0 | 0.0 | 0.00 | 0.17 | 0.00 | 97 | 1010.3 |
| 20260505040505 | 50 | 0 | 0.0 | 0.0 | 0.00 | 0.17 | 0.00 | 97 | 1010.4 |
| 20260505040005 | 50 | 0 | 0.0 | 0.0 | 0.00 | 0.17 | 0.00 | 97 | 1010.4 |
| 20260505035504 | 50 | 0 | 0.0 | 0.0 | 0.00 | 0.17 | 0.00 | 96 | 1010.5 |
| 20260505035004 | 51 | 0 | 0.0 | 0.0 | 0.00 | 0.17 | 0.00 | 96 | 1010.6 |
| 20260505034505 | 51 | 0 | 0.0 | 0.0 | 0.00 | 0.17 | 0.00 | 96 | 1010.5 |
| 20260505034004 | 51 | 0 | 0.0 | 0.0 | 0.00 | 0.17 | 0.00 | 97 | 1010.5 |
| 20260505033505 | 51 | 0 | 0.0 | 0.0 | 0.00 | 0.17 | 0.00 | 97 | 1010.6 |